CW1102 Weather Reports


Display with metric or nautical units.
time (UTC)temp
F
wind
direction
speed
MPH
gust
MPH
rain 1hr
in
rain 24hr
in
rain mn
in
humidity
%
barometer
mb
20260505183030 72 272 1.0 5.0 0.00 0.00 0.00 30 1009.0
20260505181527 71 274 2.0 4.0 0.00 0.00 0.00 35 1009.0
20260505180037 69 264 1.0 5.0 0.00 0.00 0.00 39 1009.1
20260505174620 67 47 1.0 4.0 0.00 0.00 0.00 48 1009.1
20260505173016 65 328 0.0 4.0 0.00 0.00 0.00 54 1009.3
20260505171515 64 288 1.0 3.0 0.00 0.00 0.00 56 1009.4
20260505170022 62 278 0.0 4.0 0.00 0.00 0.00 57 1009.5
20260505164507 61 306 1.0 4.0 0.00 0.00 0.00 58 1009.6
20260505163005 58 264 1.0 3.0 0.00 0.00 0.00 63 1009.7
20260505161502 57 288 0.0 3.0 0.00 0.00 0.00 64 1009.8
20260505153058 53 298 1.0 4.0 0.00 0.00 0.00 70 1010.2
20260505151553 52 59 0.0 2.0 0.00 0.00 0.00 70 1010.2
20260505124535 38 104 0.0 1.0 0.00 0.00 0.00 92 1009.5
20260505123051 38 103 0.0 1.0 0.00 0.00 0.00 90 1009.3
20260505121530 38 78 0.0 0.0 0.00 0.00 0.00 90 1009.1
20260505120030 38 78 0.0 1.0 0.00 0.00 0.00 89 1009.0
20260505114525 39 212 0.0 1.0 0.00 0.00 0.00 89 1008.8
20260505111531 39 167 0.0 0.0 0.00 0.00 0.00 89 1008.8
20260505101510 41 110 0.0 1.0 0.00 0.00 0.00 88 1008.3
20260505100009 41 135 0.0 1.0 0.00 0.00 0.00 86 1008.3
20260505094507 42 146 0.0 1.0 0.00 0.00 0.00 86 1008.1
20260505093003 43 146 0.0 1.0 0.00 0.00 0.00 85 1008.0
20260505091601 43 130 0.0 1.0 0.00 0.00 0.00 86 1008.0
20260505090100 43 117 0.0 2.0 0.00 0.00 0.00 85 1007.8
20260505084555 43 80 0.0 1.0 0.00 0.00 0.00 84 1007.8
20260505083102 44 82 0.0 1.0 0.00 0.00 0.00 83 1007.6
20260505081555 45 103 0.0 1.0 0.00 0.00 0.00 82 1007.7
20260505080052 45 120 0.0 1.0 0.00 0.00 0.00 82 1007.7
20260505074548 45 139 0.0 3.0 0.00 0.00 0.00 81 1007.7
20260505073043 47 100 2.0 4.0 0.00 0.00 0.00 79 1007.5
20260505071542 47 214 0.0 5.0 0.00 0.00 0.00 79 1007.2
20260505070045 48 108 1.0 5.0 0.00 0.00 0.00 77 1007.3
20260505064552 49 205 0.0 2.0 0.00 0.00 0.00 76 1007.0
20260505063038 50 341 3.0 4.0 0.00 0.00 0.00 75 1007.1
20260505061541 51 150 0.0 1.0 0.00 0.00 0.00 73 1006.9
20260505060034 51 188 0.0 2.0 0.00 0.00 0.00 72 1006.9
20260505054534 51 326 1.0 2.0 0.00 0.00 0.00 71 1006.6
20260505053032 53 139 0.0 2.0 0.00 0.00 0.00 67 1006.6
20260505041534 59 126 0.0 3.0 0.00 0.00 0.00 54 1006.3
20260505040030 61 132 2.0 3.0 0.00 0.00 0.00 51 1006.2
20260505034533 63 279 0.0 2.0 0.00 0.00 0.00 49 1005.9
20260505033031 65 280 2.0 4.0 0.00 0.00 0.00 42 1005.7
20260505031528 66 266 1.0 3.0 0.00 0.00 0.00 41 1005.4
20260505030027 67 273 1.0 5.0 0.00 0.00 0.00 38 1005.2
20260505024538 70 348 2.0 8.0 0.00 0.00 0.00 34 1004.9
20260505023026 71 12 6.0 14.0 0.00 0.00 0.00 32 1004.8
20260505021525 72 14 6.0 17.0 0.00 0.00 0.00 30 1004.7
20260505020025 73 42 6.0 12.0 0.00 0.00 0.00 31 1004.5
20260505014527 74 41 7.0 14.0 0.00 0.00 0.00 29 1004.4
20260505013024 76 308 2.0 11.0 0.00 0.00 0.00 26 1004.3
20260505011522 76 340 6.0 16.0 0.00 0.00 0.00 26 1004.4
20260505010021 76 314 9.0 19.0 0.00 0.00 0.00 25 1004.3
20260505004522 78 27 8.0 12.0 0.00 0.00 0.00 25 1004.3
20260505003021 77 311 6.0 12.0 0.00 0.00 0.00 24 1004.2
20260505001520 78 302 4.0 10.0 0.00 0.00 0.00 22 1004.2
20260505000028 78 301 7.0 16.0 0.00 0.00 0.00 22 1004.1
20260504234520 78 337 7.0 14.0 0.00 0.00 0.00 22 1004.0
20260504233022 78 326 6.0 17.0 0.00 0.00 0.00 21 1004.1
20260504231525 79 280 5.0 12.0 0.00 0.00 0.00 20 1004.1
20260504230016 79 310 5.0 12.0 0.00 0.00 0.00 21 1004.1
20260504224514 78 283 5.0 14.0 0.00 0.00 0.00 22 1004.3
20260504223010 79 335 6.0 13.0 0.00 0.00 0.00 22 1004.3
20260504221508 78 322 3.0 14.0 0.00 0.00 0.00 24 1004.4
20260504214505 77 66 5.0 14.0 0.00 0.00 0.00 24 1004.7
20260504213007 79 293 5.0 11.0 0.00 0.00 0.00 28 1004.7
20260504211500 78 276 6.0 13.0 0.00 0.00 0.00 29 1004.8
20260504210110 78 280 8.0 12.0 0.00 0.00 0.00 28 1004.8
20260504204603 78 276 4.0 10.0 0.00 0.00 0.00 27 1005.0
20260504203054 77 275 5.0 12.0 0.00 0.00 0.00 29 1005.1
20260504201552 77 269 3.0 9.0 0.00 0.00 0.00 30 1005.3
20260504200049 77 282 7.0 11.0 0.00 0.00 0.00 30 1005.4
20260504194603 77 272 5.0 9.0 0.00 0.00 0.00 30 1005.6
20260504193044 75 258 4.0 10.0 0.00 0.00 0.00 32 1005.8
20260504191547 74 285 5.0 9.0 0.00 0.00 0.00 31 1006.0
20260504190044 73 318 4.0 7.0 0.00 0.00 0.00 40 1006.2
20260504184538 71 315 3.0 6.0 0.00 0.00 0.00 43 1006.4